Location: Champseau
(45.8333°N, 1.7667°E)
Time: 09:38:41
(UTC+00:00)

STRAND 1 - Pass Details

Date: 04 December 2021
Orbit: 768 x 780 km, 98.4° (Epoch: 22 January)

Event Time Altitude Azimuth Distance (km) Brightness Sun altitude
Rises 05:49:31 0° 157° (SSE) 3,246 ? -14.7°
Reaches altitude 10° 05:51:49 10° 155° (SSE) 2,321 ? -14.3°
Maximum altitude 05:56:55 70° 73° (ENE) 828 ? -13.5°
Drops below altitude 10° 06:02:01 10° 351° (N) 2,329 ? -12.6°
Sets 06:04:20 0° 349° (N) 3,258 ? -12.3°
